This is the latest recevied weather packets stored in our database for station/object WX4ET. If no packets are shown the sender has not sent any weather packets the latest 10 day(s).
| Time | Temp. | Humidity | Pressure | Rain* | Wind** | Luminosity | Snow |
|---|---|---|---|---|---|---|---|
| 1777637619 | 9.44° C | 82% | 1009.7 hPa | 0 mm | - | 94 W/m² | - |
| 1777637317 | 8.89° C | 84% | 1009.9 hPa | 0 mm | - | 83 W/m² | - |
| 1777637013 | 8.89° C | 85% | 1009.9 hPa | 0 mm | - | 78 W/m² | - |
| 1777636709 | 8.89° C | 85% | 1009.8 hPa | 0 mm | - | 71 W/m² | - |
| 1777636406 | 8.89° C | 86% | 1009.9 hPa | 0 mm | - | 67 W/m² | - |
| 1777636101 | 8.89° C | 85% | 1009.9 hPa | 0 mm | - | 62 W/m² | - |
| 1777635796 | 8.89° C | 86% | 1009.8 hPa | 0 mm | - | 71 W/m² | - |
| 1777635493 | 8.33° C | 87% | 1010.1 hPa | 0 mm | - | 59 W/m² | - |
| 1777635190 | 7.78° C | 87% | 1009.7 hPa | 0 mm | - | 40 W/m² | - |
| 1777634887 | 7.78° C | 87% | 1009.5 hPa | 0 mm | - | 34 W/m² | - |
| 1777634584 | 7.78° C | 88% | 1009.9 hPa | 0 mm | - | 26 W/m² | - |
| 1777634281 | 7.78° C | 90% | 1009.6 hPa | 0 mm | - | 26 W/m² | - |
| 1777633976 | 7.78° C | 91% | 1009.8 hPa | 0 mm | - | 28 W/m² | - |
| 1777633674 | 7.22° C | 92% | 1009.9 hPa | 0 mm | - | 21 W/m² | - |
| 1777633373 | 7.22° C | 91% | 1009.6 hPa | 0 mm | - | 16 W/m² | - |
| 1777633069 | 7.22° C | 91% | 1010 hPa | 0 mm | - | 11 W/m² | - |
| 1777632765 | 6.67° C | 91% | 1009.8 hPa | 0 mm | - | 6 W/m² | - |
| 1777632461 | 6.67° C | 92% | 1009.7 hPa | 0 mm | - | 3 W/m² | - |
| 1777632159 | 6.67° C | 93% | 1009.7 hPa | 0 mm | - | 1 W/m² | - |
| 1777631856 | 6.67° C | 94% | 1009.8 hPa | 0 mm | - | 0 W/m² | - |
| 1777631555 | 6.67° C | 94% | 1010 hPa | 0 mm | - | 0 W/m² | - |
| 1777631251 | 6.67° C | 94% | 1010 hPa | 0 mm | - | 0 W/m² | - |
| 1777630949 | 6.67° C | 94% | 1009.9 hPa | 0 mm | - | 0 W/m² | - |
| 1777630644 | 6.67° C | 94% | 1009.8 hPa | 0 mm | - | 0 W/m² | - |
| 1777630342 | 6.67° C | 94% | 1009.8 hPa | 0 mm | - | 0 W/m² | - |
* Rain latest hour (hover to see other rain measurements)
** Current wind speed in m/s (hover to see current wind gust speed)